Location: La Sioule Rivi�re
(46.3664°N, 3.3197°E)
Time: 12:22:43
(UTC+00:00)

CSL-04 Rocket - Pass Details

Date: 29 October 2020
Orbit: 805 x 861 km, 98.9° (Epoch: 23 November)

Event Time Altitude Azimuth Distance (km) Brightness Sun altitude
Exits shadow 18:34:12 - 159° (SSE) 3,042 6.4 -20.9°
Reaches altitude 10° 18:35:36 10° 159° (SSE) 2,488 5.9 -21.1°
Maximum altitude 18:41:09 80° 73° (ENE) 873 3.6 -22.1°
Drops below altitude 10° 18:46:40 10° 347° (NNW) 2,482 6.3 -23.0°
Sets 18:49:02 0° 347° (NNW) 3,414 7.1 -23.4°
